[[{"header":{"parameterUnit":"m.s-1","parameterCategory":1,"la1":30.2991,"la2":30.254,"lo1":-89.0895,"lo2":-89.0444,"dy":0.0017,"dx":0.0017,"nx":28,"ny":28,"refTime":"2025-08-13T09:00:00:Z","depth":0,"parameterNumber":2,"parameterNumberName":"U-component_of_WINDS"},"data":[0,0,0,0,0,0,0,0,0,0,0,0,0,0,0,0,0,0,0,0,0,0,0,0,0,0,0,0,0,0,0,0,0,0,0,0,0,0,0,0,0,0,0,0,0,0,0,0,0,0,0,0,0,0,0,0,0,0,3.7929,3.793,0,3.8046,3.8047,3.8048,3.7993,3.799,3.7987,3.7984,3.8106,3.8112,3.8118,0,0,0,0,0,0,0,0,0,0,0,0,0,3.7658,3.7663,3.7929,3.793,3.7932,3.8045,3.8047,3.8049,3.7993,3.799,3.7986,3.7983,3.8104,3.8111,3.8118,0,0,0,0,0,0,0,0,0,0,0,0,0,3.7775,3.7665,3.7929,3.7918,3.7918,3.8045,3.8047,3.8049,3.7994,3.799,3.7985,3.7981,3.8101,3.811,3.8119,3.8264,0,0,3.8147,3.8151,0,0,0,0,0,0,0,0,3.7769,3.7785,3.7918,3.7919,3.7919,3.8,3.7996,3.8121,3.7995,3.7965,3.7984,3.7979,3.8074,3.8085,3.8117,3.827,3.8275,3.8148,3.8153,3.8157,3.8159,0,0,0,0,0,0,0,3.7761,3.778,3.7975,3.792,3.7921,3.7907,3.7919,3.8019,3.8044,3.7968,3.7964,3.7978,3.8074,3.8109,3.812,3.8277,3.8147,3.8155,3.8161,3.8164,3.855,3.8555,0,0,0,0,0,0,3.7753,3.7774,3.7971,3.7979,3.7831,3.7916,3.7929,3.7979,3.8042,3.8048,3.7982,3.7975,3.8095,3.8109,3.8124,3.8294,3.8157,3.8165,3.817,3.8545,3.8551,3.8557,0,0,0,0,0,0,3.7747,3.7771,3.7967,3.7875,3.7899,3.7925,3.7982,3.7983,3.8018,3.8053,3.8057,3.8013,3.8092,3.8111,3.8228,3.8298,3.8169,3.8178,3.854,3.8547,3.8554,3.8639,0,0,0,0,0,0,3.774,3.7769,3.7825,3.7877,3.7904,3.807,3.7986,3.7989,3.8033,3.8026,3.8083,3.8088,3.809,3.8215,3.8237,3.8308,3.8185,3.8534,3.8543,3.8552,3.863,3.8648,3.8664,0,0,0,0,0,3.773,3.7846,3.7828,3.7852,3.7974,3.8074,3.809,3.8089,3.8039,3.8095,3.8117,3.8087,3.8287,3.8228,3.8252,3.8327,3.8529,3.854,3.8551,3.8623,3.8645,3.8663,0,0,0,0,0,0,3.7803,3.7853,3.7833,3.7969,3.8018,3.8065,3.8135,3.8113,3.8177,3.8167,3.8164,3.8178,3.8299,3.8325,3.8258,3.8468,3.84,3.8417,3.8446,3.8468,3.8484,3.8475,3.8192,0,0,0,0,0,3.7835,3.7912,3.7951,3.8067,3.8092,3.8109,3.8153,3.8148,3.8198,3.8219,3.8249,3.83,3.8373,3.8423,3.8493,3.8634,3.8644,3.8697,3.8714,3.8727,3.8741,3.8814,3.8837,3.8592,3.8592,3.8592,0,0,3.7902,3.7938,3.7987,3.8082,3.8119,3.8198,3.8127,3.8215,3.8273,3.8232,3.8344,3.8368,3.8424,3.8553,3.8611,3.8578,3.8811,3.8741,3.8752,3.8758,3.8827,3.8851,3.8871,3.86,3.8598,3.8597,0,0,3.8063,3.8099,3.8198,3.8235,3.8291,3.8302,3.8325,3.8375,3.8389,3.8501,3.8471,3.854,3.8669,3.8708,3.8745,3.8918,3.8892,3.8941,3.9029,3.91,3.9119,3.9136,3.9195,3.9216,3.8955,3.8955,3.8956,0,3.8138,3.8256,3.8252,3.834,3.8382,3.8347,3.8446,3.8483,3.856,3.8589,3.8551,3.8708,3.8744,3.888,3.8921,3.8954,3.8979,3.8934,3.9117,3.9134,3.9149,3.9205,3.9228,3.8961,3.896,3.896,3.8959,0,3.8344,3.8426,3.8499,3.8571,3.8622,3.8715,3.8724,3.8776,3.8765,3.8779,3.8892,3.8933,3.9009,3.9041,3.9034,3.9176,3.9153,3.9116,3.9048,3.9178,3.923,3.9252,3.8969,3.8967,3.8965,3.8964,0,0,3.8556,3.8622,3.8649,3.8679,3.8737,3.88,3.8891,3.8964,3.9007,3.9061,3.9135,3.9243,3.9208,3.925,3.9246,3.9309,3.9439,3.9264,3.9265,3.9292,3.9594,3.9619,3.9644,3.9422,3.9426,3.9429,3.9588,0,3.8718,3.8876,3.8874,3.902,3.9093,3.906,3.9139,3.9183,3.9198,3.9262,3.928,3.9354,3.9305,3.9329,3.939,3.941,3.9499,3.9399,3.949,3.9493,3.9474,3.9672,3.97,3.9847,3.9609,3.9612,3.9615,0,3.8929,3.8987,3.914,3.9183,3.9214,3.9285,3.935,3.9413,3.9461,3.9467,3.9512,3.9498,3.9589,3.9518,3.9643,3.9575,3.9612,3.9627,3.9633,3.964,3.956,3.9681,3.9895,3.9916,3.9647,3.9645,3.9642,0,3.9063,3.918,3.9285,3.9313,3.9368,3.9418,3.9443,3.9486,3.9529,3.9586,3.9613,3.9681,3.9718,3.977,3.9773,3.9722,3.9897,3.9828,3.9903,3.9903,3.9941,3.9938,4.016,3.9969,3.9969,3.9968,3.9968,0,3.9244,3.9338,3.9346,3.9411,3.9514,3.951,3.9613,3.9634,3.9672,3.9739,3.9716,3.978,3.9782,3.9847,3.985,3.995,3.9968,3.9975,3.9974,3.9975,3.9974,3.9998,3.9987,3.9974,3.9973,3.9972,3.9971,0,3.9411,3.942,3.9532,3.9574,3.9586,3.9661,3.9696,3.9757,3.9769,3.9854,3.9874,3.9893,3.9968,3.9977,4.0065,4.0067,4.0187,4.0177,4.017,4.0168,4.0241,4.0233,4.0485,4.0516,4.0307,4.0309,4.0311,0,3.9524,3.9595,3.9643,3.9686,3.9713,3.9783,3.9825,3.9824,3.9869,3.9927,3.9981,4.0053,4.011,4.0231,4.0253,4.0319,4.0309,4.0393,4.0319,4.0317,4.0306,4.0301,4.0306,4.0406,4.0409,4.041,4.0412,0,3.9723,3.9723,3.9785,3.9848,3.9899,3.9949,3.9996,4.0032,4.0036,4.0088,4.0163,4.0208,4.0296,4.0367,4.0432,4.0457,4.0435,4.0435,4.0455,4.0456,4.0448,4.045,4.0206,4.0429,4.0427,4.0426,4.0425,4.0424,3.9864,3.9924,3.9966,4.0035,4.007,4.0113,4.0171,4.0189,4.0252,4.0322,4.0318,4.04,4.0443,4.0528,4.0558,4.0622,4.0594,4.0624,4.0631,4.0638,4.0644,4.044,4.0634,4.0634,4.0633,4.0633,4.0632,0,4.0059,4.0084,4.0147,4.0212,4.0265,4.0239,4.0288,4.0335,4.0407,4.0449,4.0505,4.059,4.0658,4.0684,4.075,4.0796,4.0787,4.0813,4.0809,4.0814,4.0667,4.0641,4.0819,4.0819,4.0819,4.0819,4.0819,4.0819,4.0166,4.0265,4.027,4.0385,4.041,4.0489,4.0519,4.0558,4.0591,4.0686,4.0742,4.0758,4.0793,4.0861,4.0922,4.0928,4.0952,4.0982,4.0983,4.0844,4.0825,4.0807,4.0783,4.0988,4.0988,4.1125,4.1126,4.1127]},{"header":{"parameterUnit":"m.s-1","parameterCategory":1,"la1":30.2991,"la2":30.254,"lo1":-89.0895,"lo2":-89.0444,"dy":0.0017,"dx":0.0017,"nx":28,"ny":28,"refTime":"2025-08-13T09:00:00:Z","depth":0,"parameterNumber":3,"parameterNumberName":"V-component_of_WINDS"},"data":[0,0,0,0,0,0,0,0,0,0,0,0,0,0,0,0,0,0,0,0,0,0,0,0,0,0,0,0,0,0,0,0,0,0,0,0,0,0,0,0,0,0,0,0,0,0,0,0,0,0,0,0,0,0,0,0,0,0,2.9819,2.9819,0,2.9874,2.9874,2.9875,2.9843,2.9841,2.984,2.9838,2.989,2.9893,2.9896,0,0,0,0,0,0,0,0,0,0,0,0,0,2.9681,2.9683,2.9819,2.9819,2.982,2.9874,2.9874,2.9875,2.9843,2.9841,2.984,2.9838,2.9889,2.9893,2.9896,0,0,0,0,0,0,0,0,0,0,0,0,0,2.9739,2.9684,2.9819,2.9811,2.9811,2.9873,2.9874,2.9875,2.9844,2.9841,2.9839,2.9837,2.9888,2.9892,2.9897,2.9969,0,0,2.991,2.9911,0,0,0,0,0,0,0,0,2.9735,2.9744,2.9811,2.9811,2.9811,2.9849,2.9845,2.9906,2.9844,2.9831,2.9838,2.9836,2.9878,2.9883,2.9898,2.9971,2.9973,2.991,2.9912,2.9914,2.9915,0,0,0,0,0,0,0,2.9731,2.9741,2.984,2.9812,2.9812,2.9803,2.9808,2.9856,2.9867,2.9832,2.983,2.9837,2.9878,2.9894,2.9899,2.9974,2.991,2.9914,2.9916,2.9918,3.0106,3.0109,0,0,0,0,0,0,2.9729,2.9738,2.9838,2.9842,2.9767,2.9807,2.9813,2.9839,2.9866,2.9868,2.9839,2.9835,2.9888,2.9894,2.9901,2.9986,2.9914,2.9918,2.9921,3.0104,3.0107,3.011,0,0,0,0,0,0,2.9726,2.9738,2.9836,2.9789,2.9801,2.9812,2.9841,2.9842,2.9858,2.9871,2.9873,2.9854,2.9887,2.9895,2.9952,2.9987,2.992,2.9924,3.0101,3.0105,3.0108,3.0157,0,0,0,0,0,0,2.9722,2.9737,2.9766,2.979,2.9804,2.9888,2.9843,2.9844,2.9866,2.9862,2.9886,2.9888,2.9886,2.9946,2.9956,2.9992,2.9927,3.0098,3.0103,3.0107,3.0152,3.0162,3.017,0,0,0,0,0,2.9717,2.9777,2.9768,2.978,2.9841,2.989,2.9898,2.9895,2.9869,2.9897,2.9905,2.9887,2.9982,2.9952,2.9963,3.0001,3.0096,3.0101,3.0107,3.0148,3.016,3.017,0,0,0,0,0,0,2.9755,2.978,2.977,2.984,2.9863,2.9885,2.992,2.9908,2.9938,2.9933,2.9927,2.9932,2.9991,3.0002,2.9968,3.0071,3.0034,3.0043,3.0062,3.0073,3.0082,3.0078,2.9931,0,0,0,0,0,2.9772,2.9812,2.9831,2.9891,2.9903,2.991,2.9931,2.9927,2.9951,2.996,2.9972,2.9994,3.0029,3.0052,3.0084,3.0154,3.0157,3.0185,3.0194,3.0201,3.0208,3.0243,3.0255,3.0128,3.0128,3.0128,0,0,2.9807,2.9825,2.9851,2.9899,2.9916,2.9956,2.9918,2.9962,2.9991,2.9966,3.0021,3.003,3.0054,3.0117,3.0146,3.0128,3.0244,3.0208,3.0214,3.0217,3.025,3.0262,3.0273,3.0132,3.0131,3.0131,0,0,2.989,2.9909,2.996,2.9978,3.0006,3.001,3.0022,3.0045,3.0051,3.0106,3.0088,3.0121,3.0181,3.0198,3.0215,3.0303,3.0287,3.0314,3.0361,3.0395,3.0405,3.0414,3.0444,3.0455,3.0321,3.0321,3.0321,0,2.9929,2.999,2.9987,3.0032,3.0053,3.0034,3.0084,3.0101,3.0138,3.0152,3.0131,3.0205,3.022,3.0286,3.0308,3.0322,3.0334,3.0311,3.0404,3.0413,3.0421,3.0449,3.0461,3.0324,3.0324,3.0323,3.0323,0,3.0035,3.0077,3.0115,3.0152,3.0176,3.0224,3.0227,3.0252,3.0245,3.0251,3.0306,3.0323,3.0358,3.0373,3.0367,3.0438,3.0426,3.0405,3.0368,3.0436,3.0463,3.0474,3.0328,3.0327,3.0326,3.0326,0,0,3.0144,3.0178,3.0192,3.0208,3.0236,3.0268,3.0313,3.0349,3.037,3.0395,3.0431,3.0482,3.0463,3.0482,3.0477,3.0508,3.0575,3.0483,3.0484,3.0498,3.0651,3.0666,3.0679,3.0564,3.0566,3.0568,3.0649,0,3.0227,3.0309,3.0308,3.0382,3.042,3.0401,3.0441,3.0461,3.0467,3.0499,3.0504,3.054,3.0513,3.0524,3.0554,3.056,3.0605,3.0555,3.0596,3.0598,3.059,3.0693,3.0709,3.0784,3.0659,3.0661,3.0663,0,3.0336,3.0366,3.0445,3.0467,3.0482,3.0518,3.0549,3.058,3.0602,3.0604,3.0625,3.0616,3.0659,3.0622,3.0682,3.0647,3.0664,3.067,3.0673,3.0676,3.0634,3.0697,3.0809,3.0819,3.0679,3.0678,3.0677,0,3.0406,3.0465,3.052,3.0534,3.0561,3.0586,3.0598,3.0619,3.0639,3.0666,3.0679,3.0711,3.0728,3.0751,3.0749,3.0722,3.0809,3.0772,3.081,3.081,3.0828,3.0827,3.0943,3.0841,3.0841,3.0841,3.0841,0,3.0498,3.0547,3.0551,3.0585,3.0638,3.0635,3.0687,3.0696,3.0714,3.0747,3.0733,3.0764,3.076,3.0791,3.079,3.0838,3.0846,3.0847,3.0846,3.0848,3.0848,3.0858,3.0852,3.0844,3.0843,3.0843,3.0842,0,3.0585,3.059,3.0648,3.0669,3.0675,3.0713,3.073,3.076,3.0765,3.0807,3.0817,3.0824,3.0859,3.086,3.09,3.0899,3.0958,3.0951,3.0951,3.0949,3.0986,3.0982,3.1112,3.1128,3.1018,3.1019,3.102,0,3.0643,3.068,3.0705,3.0727,3.0741,3.0777,3.0798,3.0796,3.0818,3.0846,3.0872,3.0907,3.0934,3.0991,3.0998,3.1028,3.1022,3.1065,3.1026,3.1026,3.102,3.1018,3.1021,3.1072,3.1073,3.1074,3.1075,0,3.0745,3.0746,3.0778,3.0811,3.0837,3.0863,3.0886,3.0904,3.0905,3.093,3.0967,3.0988,3.1029,3.1063,3.1092,3.1102,3.1088,3.1088,3.1098,3.1099,3.1097,3.1097,3.097,3.1084,3.1083,3.1083,3.1082,3.1082,3.0818,3.085,3.0872,3.0908,3.0926,3.0948,3.0977,3.0986,3.1017,3.1051,3.1047,3.1088,3.1107,3.1145,3.1158,3.1188,3.1172,3.1188,3.1191,3.1195,3.1198,3.1093,3.1193,3.1193,3.1193,3.1192,3.1192,0,3.0918,3.0932,3.0965,3.0999,3.1026,3.1013,3.1037,3.1061,3.1097,3.1117,3.1144,3.1185,3.1218,3.1228,3.1258,3.128,3.1274,3.1288,3.1286,3.1288,3.1211,3.1198,3.1292,3.1292,3.1292,3.1292,3.1292,3.1292,3.0974,3.1026,3.1029,3.1088,3.1101,3.1141,3.1157,3.1176,3.1192,3.1239,3.1266,3.1273,3.1288,3.132,3.1348,3.135,3.1361,3.1377,3.1376,3.1304,3.1294,3.1284,3.1272,3.138,3.138,3.1451,3.1451,3.1452]}]]